CZ-6A DEB, 54632

Orbit data source: Space-Track

CZ-6A DEB, 54632 is space debris in SSO originally from a launch on Fri, 11 Nov 2022 UTC launched from the Taiyaun Space Center, China (TSC). Debris objects in space refer to the collection of defunct objects orbiting the Earth. Examples of debris include non-operational satellites, rocket bodies, and fragments generated from explosions, collisions, or faulty payload assembly.

Loading next visibility...
Identifier
54632, 2022-151PJ
Orbit
SSO
Country
Flag of CNCN / PRC
Related business
Manufacturer
SAST
Mission
Spacecraft
Bus & Motor
Unknown
Mass
Unknown
Launch date (UTC)
2022-11-11 (4 years ago)
Launch vehicle
Unknown
Launch site
Taiyaun Space Center, China (TSC)
Object type
Payload
Rocket body
Debris
Shape & HBR
Unknown shape, 0.1 m
Radar Cross Section
Medium (>0.1 m² and <1 m²)

Expand to show TLE details & history
Last TLE update: 21 hours ago

TLE from 21 hours ago
0 CZ-6A DEB
1 54632U 22151PJ  26207.16043114  .00029620  00000-0  34507-2 0  9998
2 54632  98.6464 281.5224 0052933 154.9562 205.4235 14.84168201195165
Epoch: 2026-07-26T03:51Z
TLE epoch observation values (Epoch: 2026-07-26T03:51:01.250Z)
Latitude
-0.00003°
Longitude
-80.09515°
Altitude
652.683 km
Speed
7.513 km/s
True Right ascension
18h 46m 05s
True Declination
0° 00' 00"
Sunlit
Object was in full shadow at epoch
Visualization orbit readout
Latitude
Unknown
Longitude
Unknown
Altitude
Unknown
Speed
Unknown
Apparent Right ascension
Unknown
Apparent Declination
Unknown
Sunlit
N/A
Visualization observer readout
Local Sidereal Time
13:58:37
Azimuth
Unknown
Elevation
Unknown
Doppler factor
Unknown
Orbital elements
Apogee altitude
650.276 km
Perigee altitude
576.261 km
Semi-major axis
6,991.405 km
Eccentricity
0.00529
Inclination
98.6464°
RAAN
281.5224°
Arg. of periapsis
154.9562°
True anomaly
205.16465°
Mean anomaly
205.4235°
Eccentric anomaly
205.29392°
Mean motion
3.71276 °/min
Orbital period
96.96 mins
BSTAR
0.0034507
Loading maneuver chart data...
Computing Atmospheric mass density...
Loading historical data...
Loading historical data...
Loading historical data...
Loading historical data...
Loading historical data...
Loading historical data...
Loading historical data...

Documentation

Showing up to 5 results
|